Location: Ripley
(48.3812°N, 115.4473°W)
Time: 12:29:05
(UTC+00:00)

AIST 2D - Pass Details

Date: 05 July 2022
Orbit: 433 x 444 km, 97.0° (Epoch: 10 August)

Event Time Altitude Azimuth Distance (km) Brightness Sun altitude
Rises 05:37:07 0° 9° (N) 2,429 ? -13.2°
Reaches altitude 10° 05:39:09 10° 5° (N) 1,557 ? -13.3°
Maximum altitude 05:42:26 59° 286° (WNW) 513 ? -13.6°
Enters shadow 05:45:27 12° 207° (SSW) 1,446 ? -13.9°
